Previsão horária em Celujki

Hoje, 25 Julho, Domingo

Tempo Temperatura Precipitação Vento Pressão Humidade
00:00 +18°C° 0 mm 2 m/s 748 mmHg 76%
01:00 +18°C° 0 mm 2 m/s 748 mmHg 77%
02:00 +18°C° 0 mm 2 m/s 748 mmHg 78%
03:00 +18°C° 0 mm 2 m/s 748 mmHg 79%
04:00 +17°C° 0 mm 2 m/s 748 mmHg 80%
05:00 +17°C° 0 mm 3 m/s 748 mmHg 81%
06:00 +19°C° 0 mm 3 m/s 748 mmHg 76%
07:00 +20°C° 0 mm 3 m/s 748 mmHg 71%
08:00 +22°C° 0 mm 4 m/s 748 mmHg 66%
09:00 +23°C° 0 mm 4 m/s 748 mmHg 59%
10:00 +26°C° 0 mm 5 m/s 748 mmHg 51%
11:00 +28°C° 0 mm 5 m/s 748 mmHg 44%
12:00 +28°C° 0 mm 5 m/s 748 mmHg 41%
13:00 +29°C° 0 mm 5 m/s 748 mmHg 39%
14:00 +30°C° 0 mm 5 m/s 748 mmHg 36%
15:00 +30°C° 0 mm 5 m/s 748 mmHg 35%
16:00 +30°C° 0 mm 4 m/s 747 mmHg 35%
17:00 +30°C° 0 mm 4 m/s 747 mmHg 34%
18:00 +28°C° 0 mm 4 m/s 747 mmHg 39%
19:00 +27°C° 0 mm 3 m/s 747 mmHg 44%
20:00 +25°C° 0 mm 3 m/s 747 mmHg 49%
21:00 +24°C° 0 mm 3 m/s 747 mmHg 53%
22:00 +22°C° 0 mm 4 m/s 748 mmHg 57%
23:00 +21°C° 0 mm 4 m/s 748 mmHg 60%

Amanhã, 26 Julho, Segunda-feira

Tempo Temperatura Precipitação Vento Pressão Humidade
00:00 +20°C° 0 mm 4 m/s 748 mmHg 64%
01:00 +20°C° 0 mm 4 m/s 748 mmHg 68%
02:00 +19°C° 0 mm 3 m/s 747 mmHg 72%
03:00 +19°C° 0 mm 3 m/s 747 mmHg 72%
04:00 +19°C° 0 mm 4 m/s 747 mmHg 72%
05:00 +20°C° 0 mm 4 m/s 747 mmHg 71%
06:00 +21°C° 0 mm 4 m/s 747 mmHg 66%
07:00 +22°C° 0 mm 5 m/s 747 mmHg 61%
08:00 +23°C° 0 mm 6 m/s 747 mmHg 56%
09:00 +26°C° 0 mm 6 m/s 747 mmHg 50%
10:00 +28°C° 0 mm 7 m/s 747 mmHg 44%
11:00 +30°C° 0 mm 7 m/s 747 mmHg 38%
12:00 +32°C° 0 mm 7 m/s 747 mmHg 37%
13:00 +33°C° 0 mm 7 m/s 747 mmHg 35%
14:00 +33°C° 0 mm 7 m/s 747 mmHg 33%
15:00 +32°C° 0.2 mm 6 m/s 747 mmHg 40%
16:00 +29°C° 0.2 mm 6 m/s 747 mmHg 47%
17:00 +27°C° 0.2 mm 5 m/s 747 mmHg 54%
18:00 +26°C° 1 mm 5 m/s 747 mmHg 62%
19:00 +23°C° 1 mm 5 m/s 746 mmHg 70%
20:00 +22°C° 1 mm 4 m/s 746 mmHg 78%
21:00 +21°C° 3.6 mm 4 m/s 746 mmHg 83%
22:00 +21°C° 3.6 mm 4 m/s 747 mmHg 89%
23:00 +20°C° 3.6 mm 4 m/s 747 mmHg 94%

Depois de amanhã, 27 Julho, Terça-feira

Tempo Temperatura Precipitação Vento Pressão Humidade
00:00 +20°C° 1.3 mm 4 m/s 746 mmHg 94%
01:00 +20°C° 1.3 mm 4 m/s 746 mmHg 94%
02:00 +20°C° 1.3 mm 4 m/s 746 mmHg 94%
03:00 +19°C° 0.1 mm 4 m/s 746 mmHg 94%
04:00 +19°C° 0.1 mm 3 m/s 745 mmHg 95%
05:00 +19°C° 0.1 mm 2 m/s 745 mmHg 95%
06:00 +20°C° 0 mm 2 m/s 745 mmHg 91%
07:00 +21°C° 0 mm 2 m/s 745 mmHg 87%
08:00 +23°C° 0 mm 2 m/s 746 mmHg 83%
09:00 +25°C° 0 mm 2 m/s 746 mmHg 75%
10:00 +27°C° 0 mm 2 m/s 746 mmHg 67%
11:00 +29°C° 0 mm 3 m/s 746 mmHg 59%
12:00 +30°C° 0 mm 3 m/s 746 mmHg 56%
13:00 +30°C° 0 mm 3 m/s 746 mmHg 53%
14:00 +31°C° 0 mm 3 m/s 746 mmHg 50%
15:00 +31°C° 0 mm 3 m/s 745 mmHg 51%
16:00 +30°C° 0 mm 3 m/s 745 mmHg 52%
17:00 +30°C° 0 mm 3 m/s 745 mmHg 53%
18:00 +29°C° 0 mm 3 m/s 745 mmHg 58%
19:00 +28°C° 0 mm 3 m/s 745 mmHg 62%
20:00 +26°C° 0 mm 2 m/s 745 mmHg 67%
21:00 +25°C° 0 mm 2 m/s 745 mmHg 71%
22:00 +24°C° 0 mm 2 m/s 745 mmHg 76%
23:00 +23°C° 0 mm 2 m/s 745 mmHg 80%

28 Julho, Quarta-feira

Tempo Temperatura Precipitação Vento Pressão Humidade
00:00 +21°C° 0.1 mm 2 m/s 745 mmHg 81%
01:00 +21°C° 0.1 mm 2 m/s 745 mmHg 83%
02:00 +21°C° 0.1 mm 2 m/s 745 mmHg 84%
03:00 +20°C° 0.2 mm 2 m/s 744 mmHg 87%
04:00 +20°C° 0.2 mm 2 m/s 744 mmHg 89%
05:00 +21°C° 0.2 mm 1 m/s 744 mmHg 91%
06:00 +22°C° 0 mm 1 m/s 745 mmHg 85%
07:00 +23°C° 0 mm 1 m/s 745 mmHg 80%
08:00 +25°C° 0 mm 1 m/s 745 mmHg 74%
09:00 +26°C° 0 mm 1 m/s 745 mmHg 68%
10:00 +28°C° 0 mm 1 m/s 745 mmHg 61%
11:00 +29°C° 0 mm 2 m/s 745 mmHg 55%
12:00 +29°C° 0.4 mm 2 m/s 745 mmHg 54%
13:00 +29°C° 0.4 mm 3 m/s 745 mmHg 54%
14:00 +29°C° 0.4 mm 3 m/s 745 mmHg 54%
15:00 +27°C° 0.7 mm 4 m/s 745 mmHg 64%
16:00 +25°C° 0.7 mm 5 m/s 745 mmHg 75%
17:00 +22°C° 0.7 mm 6 m/s 745 mmHg 85%
18:00 +21°C° 2.1 mm 5 m/s 745 mmHg 88%
19:00 +20°C° 2.1 mm 5 m/s 746 mmHg 92%
20:00 +19°C° 2.1 mm 4 m/s 746 mmHg 95%
21:00 +19°C° 0 mm 3 m/s 746 mmHg 96%
22:00 +18°C° 0 mm 3 m/s 746 mmHg 97%
23:00 +18°C° 0 mm 2 m/s 746 mmHg 97%

29 Julho, Quinta-feira

Tempo Temperatura Precipitação Vento Pressão Humidade
00:00 +18°C° 0 mm 2 m/s 746 mmHg 97%
01:00 +17°C° 0 mm 2 m/s 746 mmHg 96%
02:00 +17°C° 0 mm 2 m/s 746 mmHg 96%
03:00 +17°C° 0 mm 2 m/s 746 mmHg 95%
04:00 +16°C° 0 mm 2 m/s 746 mmHg 94%
05:00 +16°C° 0 mm 2 m/s 746 mmHg 93%
06:00 +18°C° 0 mm 3 m/s 747 mmHg 89%
07:00 +19°C° 0 mm 3 m/s 747 mmHg 84%
08:00 +21°C° 0 mm 3 m/s 747 mmHg 79%
09:00 +22°C° 0 mm 3 m/s 747 mmHg 71%
10:00 +25°C° 0 mm 3 m/s 747 mmHg 62%
11:00 +27°C° 0 mm 4 m/s 747 mmHg 54%
12:00 +28°C° 0 mm 4 m/s 747 mmHg 50%
13:00 +28°C° 0 mm 4 m/s 747 mmHg 46%
14:00 +29°C° 0 mm 5 m/s 746 mmHg 42%
15:00 +28°C° 0 mm 4 m/s 746 mmHg 45%
16:00 +28°C° 0 mm 4 m/s 746 mmHg 48%
17:00 +27°C° 0 mm 3 m/s 746 mmHg 51%
18:00 +26°C° 0 mm 3 m/s 746 mmHg 55%
19:00 +25°C° 0 mm 2 m/s 746 mmHg 58%
20:00 +24°C° 0 mm 1 m/s 746 mmHg 62%
21:00 +23°C° 0 mm 1 m/s 746 mmHg 62%
22:00 +22°C° 0 mm 1 m/s 746 mmHg 63%
23:00 +22°C° 0 mm 1 m/s 746 mmHg 64%

30 Julho, Sexta-feira

Tempo Temperatura Precipitação Vento Pressão Humidade
00:00 +22°C° 0 mm 1 m/s 746 mmHg 64%
01:00 +21°C° 0 mm 2 m/s 746 mmHg 64%
02:00 +21°C° 0 mm 2 m/s 746 mmHg 64%
03:00 +20°C° 0 mm 2 m/s 746 mmHg 65%
04:00 +20°C° 0 mm 2 m/s 746 mmHg 67%
05:00 +19°C° 0 mm 2 m/s 746 mmHg 68%
06:00 +21°C° 0 mm 3 m/s 746 mmHg 67%
07:00 +22°C° 0 mm 3 m/s 746 mmHg 66%
08:00 +24°C° 0 mm 3 m/s 746 mmHg 64%
09:00 +26°C° 0 mm 4 m/s 746 mmHg 58%
10:00 +28°C° 0 mm 4 m/s 745 mmHg 51%
11:00 +30°C° 0 mm 4 m/s 745 mmHg 44%
12:00 +32°C° 0 mm 4 m/s 745 mmHg 42%
13:00 +33°C° 0 mm 4 m/s 745 mmHg 40%
14:00 +33°C° 0 mm 4 m/s 745 mmHg 38%
15:00 +33°C° 0 mm 4 m/s 745 mmHg 39%
16:00 +33°C° 0 mm 4 m/s 744 mmHg 39%
17:00 +34°C° 0 mm 4 m/s 744 mmHg 40%
18:00 +30°C° 0.1 mm 4 m/s 744 mmHg 49%
19:00 +28°C° 0.1 mm 4 m/s 744 mmHg 58%
20:00 +26°C° 0.1 mm 4 m/s 744 mmHg 66%
21:00 +24°C° 0.6 mm 3 m/s 744 mmHg 73%
22:00 +23°C° 0.6 mm 2 m/s 744 mmHg 80%
23:00 +21°C° 0.6 mm 2 m/s 744 mmHg 86%
Mostrar mais

Necessitamos do seu Consentimento

A Meteoprog e os seus Fornecedores de Serviços podem armazenar e aceder a dados pessoais como cookies, identificadores do dispositivo ou outras tecnologias semelhantes existentes no seu dispositivo e processar estes dados para personalizar conteúdos e anúncios, assim como funcionalidades nas redes sociais e análise de tráfego.

  • Armazenar e/ou aceder a informações no seu dispositivo

    Os cookies, identificadores do dispositivo ou outras informações podem ser armazenados ou acedidos no seu dispositivo, para os fins acima indicados.

  • Anúncios e conteúdos personalizados, medição de anúncios e conteúdos, dados sobre o público-alvo e desenvolvimento de produtos

    Os anúncios e os conteúdos podem ser personalizados com base num perfil. Podem ser adicionados dados adicionais para uma maior personalização dos anúncios e dos conteúdos. A eficácia dos anúncios e dos conteúdos pode ser medida. Podem ser obtidas informações sobre o público que visualizou os anúncios e os conteúdos. Estes dados podem ser usados para desenvolver ou melhorar sistemas, softwares ou a experiência do utilizador.

Ao clicar em "Eu concordo”, permitirá o uso de cookies, identificadores do dispositivo e web beacons mencionados ou outras tecnologias semelhantes. As configurações do navegador do seu dispositivo podem ser alteradas.

Para certos fins, podem ser invocados interesses legítimos ao invés de consentimento. Pode ler mais informação sobre este assunto na nossa Política de Privacidade e Cookies.